CamptonHillsWeather.com

Find the Weather for any City, State  
or Zipcode, or Country:

Campton Hills, IL Weather
Local Radar

Local Radar

Graphs, Details
Graphs and Gauges
Detailed Weather
Detailed Reports
Ajax Version (old)
Central Kane Co Summary
Davis Current Weather Graphs
Davis 24 Hour Weather History

CW3778 Data

Weather Underground
Maps
Temperature
Heat Index
Windchill
Humidity
Radar
Dew Point
Wind
Visibility
Visible Satellite
Satellite
Fronts
Snow Depth
Jet Stream
Flight Rules
Forecast Maps
Temperature Forecast
Maximum Temperature Forecast
Minimum Temperature Forecast
Dewpoint Forecast
Prevalent Weather
12Hr Probability of Precip.
Sky Cover
Health Maps
UV Forecast
Air Quality
Peak Air Quality Index
Weather Station
Davis Instruments Vantage Pro
Current Conditions [Select Refresh to Update]

Updated: 7:58am on 10/30/14

(location)
Currently:
32.1F

Clear
Clear

High: 35.9 F< 
(12:00am
Low: 31.0 F 
(5:36am)
Wind: NW 0 mph
Calm
Gust: 0 mph
Today's High Wind: 2 mph (12:06am)
Humidity: 93%
Pressure: 30.16 in  (Steady
Pressure Rate: 0.004 in/hr
Dew Point: 30.3F
Wind Chill: 32.1 F
Heat Index (feels like): 38.2 F
Comfort Level: Cool
Temperature Rate:  0.33F/hr
 
5 Day Forecast
 
Thu Fri Sat Sun Mon
Clear Clear Clear Clear Clear
Mostly Cloudy Partly Cloudy Partly Cloudy Partly Cloudy Chance Rain
52 43 45 46 64
36 28 30 37 43

Records and Normals
 
Temperature Forecast Normal Record
High 52 0 0
(0)
Low 36 0 0
(0)
 
Links
 
 
Weather Advisories
No Advisories
Full Advisory Text...
Weather Map

Web Cam

Almanac
 
Sunrise:  
7:25am
Moonrise: 
1:28pm

Moon Phase:
36%

Sunset: 
5:51pm
Moonset:  
---
 Star Chart...
Rainfall Totals
Hourly Rain 0.00 in
Daily Rain: 0.00 in
Monthly Rain: 3.19 in
Yearly Rain: 34.11 in
Normal Rain, month to date: 0.00 in
Normal Rain, year to date: 0.00 in
Link to Village of Campton Hills Map

Link to Counties of Illinois Map

Local Weather Exchange Network
Station ID City 
(Click for Map Location)
Neighborhood 
(Click for History)
Last Update (Date & Time) Temperature
 ()
Dew
Point ()
Humidity 
(%)
Wind 
(mph)
from the Wind Gust 
(mph) 
Pressure(in) Hourly
Rain(in)
KILGENEV5 Geneva meso_neigh1 10/30 07:51:52 35.2 31.0 86 0 SSW 6 30.09 0.00
KILSTCHA10 St. Charles Hunt Club 10/30 07:51:54 30.7 31.0 99 0 SE 0 29.70 0.00
KILSOUTH6 South Elgin Thornwood 10/30 07:42:03 28.9 29.0 99 0 ESE 0 30.02 0.00
KILSTCHA8 St. Charles Ronzheimer Ave. & S. Tyler Rd. 10/30 07:52:06 33.0 32.0 94 0 West 0 30.13 0.00
KILGENEV3 Geneva Mill Creek (NE) 10/30 07:52:02 30.4 29.0 94 0 NW 0 30.20 0.00
KILSTCHA1 St Charles CamptonHillsWeather.com Central Kane County 10/30 07:52:07 32.1 30.0 93 0 NW 0 30.16 0.00
KILELGIN13 Elgin Creek Side 10/30 07:52:07 31.9 28.0 87 0 NW 0 29.21 0.00
KILSOUTH5 South Elgin Concord Park 10/30 07:51:34 30.9 31.0 99 0 South 0 29.89 0.00
KILGENEV2 Geneva Mill Creek 10/30 07:43:00 31.1 30.0 95 0 SSW 0 30.10 0.00
KILBATAV1 Batavia Tri-Cities on the Fox River 10/30 07:51:31 31.9 25.0 75 0 NW 0 30.17 0.00
KILELBUR5 Elburn Prairie Highlands 10/30 07:50:16 35.0 33.0 93 0 North 0 30.15 0.00
KILBATAV3 Batavia West Batavia 10/30 07:38:11 30.7 29.0 94 0 West 0 30.11 0.00
KILELBUR6 Elburn Columbine Square 10/30 07:50:52 30.4 30.0 97 0 NNW 0 30.10 0.00
KILBATAV5 Batavia Fermi National Accelerator Laboratory 10/30 07:51:26 33.9 32.0 93 0 WSW 1 30.10 0.00
KILWESTC5 West Chicago THEBROWNHOUSE.ORG 10/30 07:52:05 29.8 27.0 90 0 WNW 0 30.10 0.00
KILWESTC8 West Chicago Ingalton Hills Estates 10/30 07:52:08 31.0 30.0 95 0 SSW 0 30.33 0.00
KILNORTH11 North Aurora Waterford Oaks 10/30 07:51:57 33.5 32.0 93 0 SE 0 30.14 0.00
KILELGIN10 Elgin Wing Park 10/30 07:50:15 32.5 30.0 89 0 South 0 29.33 0.00
KILELGIN14 Elgin Elgin, IL 10/30 07:51:58 31.8 31.0 95 0 WNW 0 30.06 0.00
KILCAROL5 Carol Stream Stonehenge Court 10/30 07:50:05 33.0 19.0 55 0 NW 0 30.13 0.00
KILGILBE2 Gilberts Gilberts, IL 10/30 07:52:08 32.4 31.0 95 0 South 1 30.31 0.00
KILWINFI3 Winfield Fredericksburg Farm 10/30 07:51:55 30.0 29.0 95 0 SE 0 30.07 0.00
KILWINFI2 Winfield Winfield Heights (SarahNet) 10/30 07:43:05 33.3 31.0 92 0 WNW 0 30.14 0.00
KILSLEEP3 Sleepy Hollow SLEEPY HOLLOW 10/30 07:52:05 32.2 28.0 86 0 WSW 0 29.62 0.00
KILCAROL6 Carol Stream Merbach Ct 10/30 07:52:01 32.7 31.0 93 0 West 0 29.75 0.00
KILSLEEP2 Sleepy Hollow Sleepy Hollow Manor 10/30 07:39:23 29.7 28.0 93 0 WNW 0 30.00 0.00
KILWARRE2 Warrenville meso_neigh27 10/30 07:52:03 32.2 31.0 96 0 WNW 0 30.13 0.00
KILHANOV2 Hanover Park meso_neigh28 10/30 07:51:21 33.3 33.0 99 0 NE 0 30.16 0.00
KILWHEAT8 Wheaton Wheaton Sanitary District 10/30 07:38:15 33.4 32.0 96 0 WNW 0 30.15 0.00
KILWHEAT5 Wheaton N9ABF - West Wheaton 10/30 07:39:31 31.8 29.0 89 0 NW 0 30.09 0.00
KILSCHAU9 Schaumburg Schaumburg West 10/30 07:52:00 32.7 32.0 99 0 North 1 30.11 0.00
KILEASTD2 East Dundee Rock Road Industrial Park 10/30 07:51:13 35.0 30.0 80 2 South 6 30.11 0.00
KILCARPE6 Carpentersville Carpentersville 10/30 07:51:36 31.5 30.0 95 0 NNW 0 29.25 0.00
KILWHEAT11 Wheaton Wheaton SW Orth Ct 10/30 07:51:51 34.7 29.0 80 0 NNE 0 30.23 0.00
KILNAPER19 Naperville Brookdale Lakes 10/30 06:47:29 33.2 32.0 94 0 West 0 30.10 0.00
KILCARPE5 Carpentersville Cville WWTF 10/30 07:42:01 33.5 32.0 94 0 NNW 0 30.14 0.00
KILAUROR24 Aurora Near Pine Knoll/Wolf Run 10/30 07:48:34 29.5 29.0 98 0 NNW 0 30.13 0.00
KDPA Chicago DuPage Official Station 10/30 06:52:00 33.0 30.0 89 4 SSE --- 30.15 ---
KARR Aurora Official Station 10/30 06:52:00 30.0 26.0 85 0 North --- 30.16 ---
KDKB DeKalb Official Station 10/30 07:35:00 30.0 28.0 92 5 South --- 30.13 ---
Full Advisory Text
No Warnings

Ambient Weather and Weather Underground
 Never base important decisions on this or any weather information obtained from the Internet
Updated Automatically by Ambient Weather's Virtual Weather Station  V13.01